Beach, ND

2:59 PM MDT on September 20, 2017 (GMT -0600)
Beach

Weather History for K20U - April, 2013

Change the Weather History Date:

Tuesday, April 9, 2013

  Actual Average (KGDV) Record (KGDV)
Temperature  
Mean Temperature 16 °F -  
Max Temperature 26 °F 49 °F 78 °F (2003)
Min Temperature 5 °F 27 °F 8 °F (1997)
Degree Days  
Heating Degree Days 50    
Moisture  
Dew Point 11 °F    
Average Humidity 84    
Maximum Humidity 100    
Minimum Humidity 68    
Precipitation  
Precipitation 0.18 in - - ()
Sea Level Pressure  
Sea Level Pressure 30.38 in    
Wind  
Wind Speed 10 mph (NNW)    
Max Wind Speed 14 mph    
Max Gust Speed -    
Visibility 10 miles    
Events Snow    
Averages and records for this station are not official NWS values.
T = Trace of Precipitation, MM = Missing Value Source: NWS Daily Summary

Daily Weather History Graph

Daily Weather History Graph

Search for Another Location

Airport or City:

Trip Planner

Search our weather history database for the weather conditions in past years. The results will help you decide how hot, cold, wet, or windy it might be!

Date:

Astronomy

Apr. 09, 2013 Rise Set
Actual Time 6:18 AM MDT 7:36 PM MDT
Civil Twilight 5:47 AM MDT 8:08 PM MDT
Nautical Twilight 5:09 AM MDT 8:46 PM MDT
Astronomical Twilight 4:29 AM MDT 9:26 PM MDT
Moon 5:44 AM MDT (4/9) 7:15 PM MDT (4/9)
Length of Visible Light 14h 20m
Length of Day
13h 17m
Waning Crescent, 0% of the Moon is Illuminated
Apr 9
Waning Crescent
Apr 10
New
Apr 18
First Quarter
Apr 25
Full
May 2
Last Quarter

Hourly Weather History & Observations

Time (MDT) Temp. Windchill Dew Point Humidity Pressure Visibility Wind Dir Wind Speed Gust Speed Precip Events Conditions
12:15 AM 8.6 °F -5.5 °F 6.8 °F 92% 30.33 in 10.0 mi North 10.4 mph - N/A Snow Light Snow
12:35 AM 8.6 °F -6.3 °F 6.8 °F 92% 30.32 in 10.0 mi North 11.5 mph - 0.01 in Snow Light Snow
12:55 AM 8.6 °F -6.3 °F 6.8 °F 92% 30.32 in 10.0 mi North 11.5 mph - 0.01 in Snow Light Snow
1:15 AM 8.6 °F -4.7 °F 6.8 °F 92% 30.33 in 10.0 mi North 9.2 mph - 0.01 in Snow Light Snow
1:35 AM 8.6 °F -4.7 °F 6.8 °F 92% 30.34 in 10.0 mi North 9.2 mph - 0.01 in   Mostly Cloudy
1:55 AM 6.8 °F -6.9 °F 5.0 °F 92% 30.34 in 10.0 mi North 9.2 mph - 0.01 in   Clear
2:15 AM 6.8 °F -6.9 °F 3.2 °F 85% 30.34 in 10.0 mi North 9.2 mph - N/A   Clear
2:35 AM 6.8 °F -6.9 °F 3.2 °F 85% 30.33 in 10.0 mi NNW 9.2 mph - N/A   Clear
2:55 AM 5.0 °F -9.1 °F 3.2 °F 92% 30.33 in 10.0 mi NNW 9.2 mph - N/A   Clear
3:15 AM 5.0 °F -5.6 °F 1.4 °F 85% 30.35 in 10.0 mi NW 5.8 mph - N/A   Clear
3:35 AM 5.0 °F -8.1 °F 3.2 °F 92% 30.35 in 10.0 mi NW 8.1 mph - N/A   Clear
3:55 AM 6.8 °F -7.8 °F 5.0 °F 92% 30.35 in 10.0 mi NNW 10.4 mph - N/A Snow Light Snow
4:15 AM 6.8 °F -6.9 °F 5.0 °F 92% 30.36 in 10.0 mi NNW 9.2 mph - N/A Snow Light Snow
4:35 AM 6.8 °F -5.9 °F 5.0 °F 92% 30.37 in 10.0 mi NW 8.1 mph - N/A Snow Light Snow
4:55 AM 6.8 °F -6.9 °F 5.0 °F 92% 30.37 in 10.0 mi NNW 9.2 mph - N/A Snow Light Snow
5:15 AM 6.8 °F -6.9 °F 5.0 °F 92% 30.38 in 10.0 mi NNW 9.2 mph - N/A Snow Light Snow
5:35 AM 8.6 °F -4.7 °F 5.0 °F 85% 30.37 in 10.0 mi NNW 9.2 mph - 0.02 in Snow Light Snow
5:55 AM 8.6 °F -4.7 °F 6.8 °F 92% 30.39 in 10.0 mi NNW 9.2 mph - 0.05 in Snow Light Snow
6:15 AM 8.6 °F -4.7 °F 6.8 °F 92% 30.39 in 10.0 mi NW 9.2 mph - N/A Snow Light Snow
6:35 AM 8.6 °F -5.5 °F 6.8 °F 92% 30.39 in 7.0 mi NNW 10.4 mph - 0.02 in Snow Light Snow
6:55 AM 8.6 °F -5.5 °F 6.8 °F 92% 30.40 in 10.0 mi NNW 10.4 mph - 0.03 in Snow Light Snow
7:15 AM 8.6 °F -5.5 °F 6.8 °F 92% 30.39 in 10.0 mi NNW 10.4 mph - N/A Snow Light Snow
7:35 AM 8.6 °F -6.3 °F 6.8 °F 92% 30.40 in 10.0 mi NNW 11.5 mph - N/A   Mostly Cloudy
7:55 AM 8.6 °F -5.5 °F 6.8 °F 92% 30.42 in 10.0 mi NW 10.4 mph - N/A   Partly Cloudy
8:15 AM 10.4 °F -3.3 °F 6.8 °F 85% 30.42 in 9.0 mi NW 10.4 mph - N/A Snow Light Snow
8:35 AM 10.4 °F -3.3 °F 8.6 °F 92% 30.42 in 9.0 mi NW 10.4 mph - 0.02 in Snow Light Snow
8:55 AM 10.4 °F -3.3 °F 8.6 °F 92% 30.42 in 10.0 mi NW 10.4 mph - 0.04 in Snow Light Snow
9:15 AM 10.4 °F -3.3 °F 8.6 °F 92% 30.42 in 10.0 mi NW 10.4 mph - N/A Snow Light Snow
9:35 AM 12.2 °F -1.8 °F 8.6 °F 85% 30.42 in 10.0 mi NW 11.5 mph - N/A Snow Light Snow
9:55 AM 12.2 °F -1.0 °F 8.6 °F 85% 30.43 in 10.0 mi NW 10.4 mph - N/A Snow Light Snow
10:15 AM 14.0 °F -0.2 °F 8.6 °F 79% 30.43 in 9.0 mi NW 12.7 mph - N/A Snow Light Snow
10:35 AM 14.0 °F -0.2 °F 8.6 °F 79% 30.44 in 9.0 mi NW 12.7 mph - 0.02 in Snow Light Snow
10:55 AM 14.0 °F -0.2 °F 8.6 °F 79% 30.44 in 10.0 mi NW 12.7 mph - 0.04 in Snow Light Snow
11:15 AM 14.0 °F -0.2 °F 10.4 °F 86% 30.43 in 10.0 mi NNW 12.7 mph - N/A Snow Light Snow
11:35 AM 15.8 °F 2.7 °F 10.4 °F 79% 30.43 in 10.0 mi NNW 11.5 mph - N/A Snow Light Snow
11:55 AM 15.8 °F 3.4 °F 10.4 °F 79% 30.43 in 10.0 mi NNW 10.4 mph - N/A   Scattered Clouds
12:15 PM 15.8 °F 3.4 °F 10.4 °F 79% 30.43 in 10.0 mi NNW 10.4 mph - N/A   Partly Cloudy
12:35 PM 17.6 °F 5.0 °F 10.4 °F 73% 30.43 in 10.0 mi NNW 11.5 mph - N/A   Scattered Clouds
12:55 PM 17.6 °F 6.4 °F 10.4 °F 73% 30.43 in 10.0 mi NNW 9.2 mph - N/A   Partly Cloudy
1:15 PM 17.6 °F 5.0 °F 12.2 °F 79% 30.43 in 10.0 mi NW 11.5 mph - N/A   Partly Cloudy
1:35 PM 19.4 °F 6.6 °F 12.2 °F 74% 30.41 in 10.0 mi NW 12.7 mph - N/A   Scattered Clouds
1:55 PM 19.4 °F 6.0 °F 14.0 °F 80% 30.41 in 10.0 mi NW 13.8 mph - N/A   Partly Cloudy
2:15 PM 19.4 °F 6.0 °F 14.0 °F 80% 30.40 in 10.0 mi NNW 13.8 mph - N/A   Scattered Clouds
2:35 PM 19.4 °F 6.6 °F 14.0 °F 80% 30.41 in 10.0 mi NNW 12.7 mph - N/A   Partly Cloudy
2:55 PM 21.2 °F 8.9 °F 14.0 °F 74% 30.41 in 10.0 mi NNW 12.7 mph - N/A   Scattered Clouds
3:15 PM 23.0 °F 11.7 °F 14.0 °F 68% 30.40 in 10.0 mi North 11.5 mph - N/A   Scattered Clouds
3:35 PM 23.0 °F 11.7 °F 15.8 °F 74% 30.40 in 10.0 mi NNW 11.5 mph - N/A   Mostly Cloudy
3:55 PM 23.0 °F 11.7 °F 15.8 °F 74% 30.38 in 10.0 mi North 11.5 mph - N/A   Overcast
4:15 PM 24.8 °F 13.4 °F 15.8 °F 69% 30.37 in 10.0 mi North 12.7 mph - N/A   Mostly Cloudy
4:35 PM 24.8 °F 14.0 °F 15.8 °F 69% 30.37 in 10.0 mi North 11.5 mph - N/A   Mostly Cloudy
4:55 PM 24.8 °F 14.0 °F 15.8 °F 69% 30.37 in 10.0 mi North 11.5 mph - N/A   Overcast
5:15 PM 24.8 °F 12.9 °F 17.6 °F 74% 30.37 in 10.0 mi North 13.8 mph - N/A   Overcast
5:35 PM 24.8 °F 14.0 °F 17.6 °F 74% 30.36 in 10.0 mi North 11.5 mph - N/A   Overcast
5:55 PM 26.6 °F 15.2 °F 17.6 °F 69% 30.36 in 10.0 mi North 13.8 mph - N/A   Overcast
6:15 PM 26.6 °F 15.7 °F 19.4 °F 74% 30.36 in 10.0 mi North 12.7 mph - N/A   Overcast
6:35 PM 26.6 °F 16.2 °F 19.4 °F 74% 30.36 in 10.0 mi North 11.5 mph - N/A   Overcast
6:55 PM 26.6 °F 16.8 °F 19.4 °F 74% 30.36 in 10.0 mi North 10.4 mph - N/A   Overcast
7:15 PM 24.8 °F 14.6 °F 19.4 °F 80% 30.35 in 10.0 mi North 10.4 mph - N/A   Overcast
7:35 PM 24.8 °F 16.1 °F 19.4 °F 80% 30.34 in 10.0 mi North 8.1 mph - N/A   Mostly Cloudy
7:55 PM 23.0 °F 15.8 °F 17.6 °F 80% 30.35 in 10.0 mi NNW 5.8 mph - N/A   Scattered Clouds
8:15 PM 19.4 °F 12.8 °F 17.6 °F 93% 30.35 in 10.0 mi NW 4.6 mph - N/A   Scattered Clouds
8:55 PM 19.4 °F 12.8 °F 15.8 °F 86% 30.36 in 10.0 mi NNW 4.6 mph - N/A   Mostly Cloudy
9:15 PM 19.4 °F 14.3 °F 15.8 °F 86% 30.36 in 10.0 mi WNW 3.5 mph - N/A   Scattered Clouds
9:35 PM 17.6 °F 12.3 °F 15.8 °F 93% 30.36 in 10.0 mi NW 3.5 mph - N/A   Clear
9:55 PM 17.6 °F 10.7 °F 15.8 °F 93% 30.36 in 10.0 mi NW 4.6 mph - N/A   Partly Cloudy
10:15 PM 17.6 °F 12.3 °F 14.0 °F 86% 30.36 in 10.0 mi NW 3.5 mph - N/A   Mostly Cloudy
10:35 PM 17.6 °F 9.3 °F 14.0 °F 86% 30.36 in 10.0 mi NW 5.8 mph - N/A   Mostly Cloudy
10:55 PM 17.6 °F 10.7 °F 14.0 °F 86% 30.36 in 10.0 mi NW 4.6 mph - N/A   Scattered Clouds
11:15 PM 17.6 °F - 15.8 °F 93% 30.36 in 10.0 mi Calm Calm - N/A   Scattered Clouds
11:35 PM 17.6 °F 12.3 °F 15.8 °F 93% 30.35 in 10.0 mi NNW 3.5 mph - N/A   Mostly Cloudy
11:55 PM 15.8 °F 10.2 °F 15.8 °F 100% 30.35 in 10.0 mi NW 3.5 mph - N/A   Mostly Cloudy